SIA352 WSSS-EKCH

Flight info

Callsign SIA352
Flight time N/A
Altitude 34000
Route VMR9B VMR B469 VPK M751 VKB A334 HTY W14 PUT L515 OBMOG M770 SADUS/N0498F380 M770 KAKID M875 GUGAL/N0493F400 M875 DI/N0493F380 N644 REGET/N0493F400 N644 LEMOD A909 RODAR M11 REBLO UM11 CRM UL746 ODERO DCT LUGEB DCT NARKA/N0484F430 DCT KELEL DCT BAREX DCT AGODU DCT AMROR/N0474F280 N983 ROE M743 TIDVU
Aircraft A359/H-SDE1E2E3GHIJ1J2J3J5M1P2RWXYZ/LB1D1

Departure

Time 2026-05-04 04:49
Airport Singapore Changi Airport (WSSS)

Arrival

Time N/A
Airport Copenhagen Kastrup Airport (EKCH)
Time Latitude Longitude Altitude Speed Heading
2026-05-04 03:07 1.36173 103.98776 36 ft 0 kts 114°
2026-05-04 04:35 1.36177 103.98768 35 ft 4 kts 112°
2026-05-04 04:35 1.36186 103.98743 36 ft 4 kts 104°
2026-05-04 04:35 1.36191 103.98717 36 ft 4 kts 92°
2026-05-04 04:36 1.36189 103.98691 36 ft 4 kts 64°
2026-05-04 04:36 1.36177 103.98677 36 ft 0 kts 22°
2026-05-04 04:36 1.36178 103.98677 36 ft 0 kts 22°
2026-05-04 04:39 1.36187 103.98681 36 ft 6 kts 22°
2026-05-04 04:40 1.36251 103.98708 36 ft 11 kts 22°
2026-05-04 04:40 1.36344 103.98747 36 ft 16 kts 22°
2026-05-04 04:40 1.36444 103.98788 36 ft 16 kts 22°
2026-05-04 04:40 1.36511 103.98810 36 ft 9 kts 10°
2026-05-04 04:41 1.36572 103.98810 36 ft 9 kts 354°
2026-05-04 04:41 1.36635 103.98803 35 ft 9 kts 353°
2026-05-04 04:41 1.36699 103.98801 36 ft 9 kts
2026-05-04 04:41 1.36760 103.98824 36 ft 9 kts 23°
2026-05-04 04:42 1.36821 103.98851 36 ft 10 kts 23°
2026-05-04 04:42 1.36888 103.98879 36 ft 12 kts 23°
2026-05-04 04:42 1.36955 103.98919 35 ft 11 kts 54°
2026-05-04 04:42 1.36952 103.98988 36 ft 10 kts 108°
2026-05-04 04:43 1.36925 103.99054 36 ft 10 kts 112°
2026-05-04 04:43 1.36892 103.99133 36 ft 17 kts 113°
2026-05-04 04:43 1.36843 103.99248 36 ft 18 kts 113°
2026-05-04 04:43 1.36794 103.99363 36 ft 18 kts 114°
2026-05-04 04:44 1.36744 103.99476 36 ft 18 kts 114°
2026-05-04 04:44 1.36697 103.99588 36 ft 17 kts 113°
2026-05-04 04:44 1.36649 103.99699 36 ft 17 kts 113°
2026-05-04 04:44 1.36604 103.99803 36 ft 7 kts 113°
2026-05-04 04:45 1.36603 103.99805 36 ft 2 kts 113°
2026-05-04 04:45 1.36573 103.99832 36 ft 7 kts 158°
2026-05-04 04:45 1.36523 103.99836 36 ft 7 kts 188°
2026-05-04 04:47 1.36215 103.99888 36 ft 9 kts 176°
2026-05-04 04:47 1.36155 103.99879 36 ft 9 kts 200°
2026-05-04 04:47 1.36043 103.99835 36 ft 43 kts 201°
2026-05-04 04:47 1.35531 103.99618 36 ft 115 kts 203°
2026-05-04 04:48 1.34595 103.99221 39 ft 175 kts 203°
2026-05-04 04:49 1.29903 103.97232 1972 ft 203 kts 202°
2026-05-04 04:49 1.28543 103.96661 2100 ft 221 kts 202°
2026-05-04 04:49 1.27081 103.96044 2316 ft 236 kts 202°
2026-05-04 04:49 1.25520 103.95394 2511 ft 251 kts 201°
2026-05-04 04:50 1.23779 103.94997 2708 ft 264 kts 179°
2026-05-04 04:50 1.22004 103.95429 3175 ft 265 kts 150°
2026-05-04 04:50 1.20513 103.96514 3701 ft 267 kts 139°
2026-05-04 04:50 1.19111 103.97748 4172 ft 270 kts 138°
2026-05-04 04:51 1.17704 103.99013 4650 ft 274 kts 137°
2026-05-04 04:51 1.16523 104.00504 5106 ft 276 kts 116°
2026-05-04 04:51 1.16086 104.02355 5555 ft 277 kts 88°
2026-05-04 04:51 1.16574 104.04202 6007 ft 278 kts 60°
2026-05-04 04:52 1.17682 104.05791 6461 ft 281 kts 51°
2026-05-04 04:52 1.18912 104.07320 6932 ft 283 kts 51°
2026-05-04 04:52 1.20272 104.08750 7384 ft 286 kts 37°
2026-05-04 04:52 1.21942 104.09828 7861 ft 287 kts 29°
2026-05-04 04:53 1.23693 104.10806 8346 ft 289 kts 28°
2026-05-04 04:53 1.25467 104.11766 8793 ft 291 kts 26°
2026-05-04 04:53 1.27400 104.12369 9205 ft 294 kts
2026-05-04 04:53 1.29415 104.12134 9618 ft 295 kts 339°
2026-05-04 04:54 1.31148 104.11106 10069 ft 295 kts 321°
2026-05-04 04:54 1.32772 104.09746 10322 ft 306 kts 319°
2026-05-04 04:54 1.34391 104.08341 10521 ft 318 kts 319°
2026-05-04 04:54 1.36123 104.06851 10730 ft 330 kts 320°
2026-05-04 04:55 1.37897 104.05337 10915 ft 341 kts 320°
2026-05-04 04:55 1.39731 104.03775 11124 ft 352 kts 320°
2026-05-04 04:55 1.41018 104.02767 11234 ft 359 kts 326°
2026-05-04 04:55 1.43276 104.01648 11412 ft 368 kts 340°
2026-05-04 04:56 1.45729 104.00822 11593 ft 377 kts 342°